Powrót do katalogu

STARLINK-30807

AktywnyŁącznośćVLEO
NORAD 58192·PAYLOAD·🇺🇸 United States

Wystrzelony Oct 30, 2023 z Cape Canaveral Space Force Station

Loading…

Następne Przeloty (najbliższe 24 godziny)

TLE

ŚwieżeSource: CelesTrak SupGP

Epoka: Sep 14, 2026, 22:40 UTC

1 58192C 23167T   26257.94493056 -.00066153  00000+0 -23963-2 0  2570
2 58192  43.0026 154.6238 0001299 272.7297 273.5891 15.27608715    16

Śledź STARLINK-30807 w czasie rzeczywistym z AllMySat

Download on the App Store